Regional Weather Roundup
Issued by NWS

Home | Current Version | Previous Version | Text Only | Print | Product List | Glossary Off
Versions: 1 2 3 4 5 6 7 8 9 10 11 12 13 14 15 16 17 18 19 20 21 22 23 24 25 26 27 28 29 30 31 32 33 34 35 36 37 38 39 40 41 42 43 44 45 46 47 48 49 50

000
ASUS45 KBOI 271510
RWRID
WEATHER ROUNDUP FOR IDAHO
NATIONAL WEATHER SERVICE BOISE ID
900 AM MDT MON APR 27 2015

NOTE: "FAIR" INDICATES FEW OR NO CLOUDS BELOW 12000 FEET
WITH NO SIGNIFICANT WEATHER AND/OR OBSTRUCTIONS TO VISIBILITY

IDZ012-014-271600-
SOUTHWEST IDAHO


CITY           SKY/WX    TMP DP  RH WIND       PRES   REMARKS
BOISE          SUNNY     43  28  55 W3        30.32R
CALDWELL       SUNNY     45  25  45 W3        30.35R
$$

IDZ016-017-271600-
SOUTHCENTRAL IDAHO


CITY           SKY/WX    TMP DP  RH WIND       PRES   REMARKS
BURLEY         SUNNY     43  21  41 CALM      30.31R
JEROME         SUNNY     40  22  48 SE5       30.31R
TWIN FALLS     SUNNY     47  23  38 SW9       30.31R
$$

IDZ019>023-271600-
SOUTHEAST IDAHO


CITY           SKY/WX    TMP DP  RH WIND       PRES   REMARKS
IDAHO FALLS    MOSUNNY   41  32  70 N7        30.32R
POCATELLO      MOSUNNY   43  30  60 CALM      30.32R
REXBURG        SUNNY     39  31  72 NE6       30.32R WCI  35
$$

IDZ006-010-011-018-031-032-271600-
CENTRAL IDAHO MOUNTAINS


CITY           SKY/WX    TMP DP  RH WIND       PRES   REMARKS
MCCALL         SUNNY     34  25  69 CALM      30.31R
HAILEY         MOSUNNY   39  27  60 NW12      30.32R WCI  32
STANLEY          N/A     30  21  69 CALM      30.35S
SALMON         MOSUNNY   37  30  75 CALM      30.37S
CHALLIS        MOSUNNY   35  26  69 CALM      30.35R
$$

IDZ002-004-006-007-026-271600-
NORTHERN IDAHO


CITY           SKY/WX    TMP DP  RH WIND       PRES   REMARKS
LEWISTON       SUNNY     45  33  63 NE3       30.37R
LOWELL           N/A     38  34  85 CALM      30.44F
COEUR D`ALENE  SUNNY     43  34  70 E7        30.36S
MULLAN PASS    SUNNY     36  21  54 VRB3      30.31R
$$



USA.gov is the U.S. government's official web portal to all federal, state and local government web resources and services.